Weather Roundup
Issued by NWS

Home | Current Version | Previous Version | Graphics & Text | Print | Product List | Glossary Off
Versions: 1 2 3 4 5 6 7 8 9 10 11 12 13 14 15 16 17 18 19 20 21 22 23 24 25 26 27 28 29 30 31 32 33 34 35 36 37 38 39 40 41 42 43 44 45 46 47 48 49 50

000
NZUS93 KARX 111159
HRRWXR

CURRENT HOURLY OBSERVATIONS ACROSS
MUCH OF THE UPPER MISSISSIPPI VALLEY
NATIONAL WEATHER SERVICE LA CROSSE WI
700 AM CDT FRI JUL 11 2014


...SOUTHEAST MINNESOTA...


CITY           SKY/WX    TMP DP  RH WIND       PRES   REMARKS
ROCHESTER      CLOUDY    66  57  72 S18G26    30.06F
ROCHESTER/MAYO PTSUNNY   67  55  67 SE14G24   30.05F
WINONA         CLOUDY    70  57  64 SW8       30.08F
AUSTIN         LGT RAIN  66  57  72 S12       30.04F
ALBERT LEA     LGT RAIN  66  57  72 S16G22    30.01F
DODGE CENTER   CLOUDY    66  59  77 S18G24    30.04S
PRESTON        CLOUDY    65  58  79 S12       30.10S
OWATONNA       LGT RAIN  66  57  72 S15G22    30.00S
FARIBAULT      DRIZZLE   70  57  64 S10       30.00R
$$

...ELSEWHERE IN MINNESOTA...


CITY           SKY/WX    TMP DP  RH WIND       PRES   REMARKS
MINNEAPOLIS    LGT RAIN  68  63  84 S14       29.94S
INTNL FALLS    PTSUNNY   67  64  90 VRB3      29.86S
DULUTH         CLOUDY    63  60  90 S9        29.94F
RED WING       LGT RAIN  70  57  64 S8        30.00F
REDWOOD FALLS  CLOUDY    69  66  90 S17       29.91S
MANKATO        CLOUDY    66  61  82 S12       29.98R
WORTHINGTON    CLOUDY    72  64  78 S17G24    29.96R
FAIRMONT       CLOUDY    66  59  77 S13       29.98R
$$

...SOUTHWEST WISCONSIN...


CITY           SKY/WX    TMP DP  RH WIND       PRES   REMARKS
LA CROSSE      CLOUDY    70  58  65 S7        30.10R
PRAIRIE DU CHI CLOUDY    67  57  72 S6        30.14R
BOSCOBEL       CLOUDY    67  61  81 NW3       30.15R
LONE ROCK      NOT AVBL
PLATTEVILLE    CLOUDY    63  59  88 SE8       30.17R
FORT MC COY    PTSUNNY   66  57  74 S5        30.13R
VIROQUA        FAIR      64  59  82 S8        30.15R
WIS DELLS      MOSUNNY   65  57  74 S6        30.15R
$$

...ELSEWHERE IN WISCONSIN...


CITY           SKY/WX    TMP DP  RH WIND       PRES   REMARKS
MILWAUKEE      MOSUNNY   64  52  64 S6        30.20R
MADISON        MOSUNNY   65  57  75 S5        30.18R
GREEN BAY      MOSUNNY   63  55  75 S8        30.16R
EAU CLAIRE     LGT RAIN  67  60  78 S10       30.05F
BLACK RVR FLS  FAIR      61  61  99 CALM      30.11R
MEDFORD        CLOUDY    62  58  88 S8        30.12S
WAUSAU         MOSUNNY   66  60  81 SW5       30.13R
WIS RAPIDS     MOSUNNY   65  60  84 S6        30.15R
MARSHFIELD     PTSUNNY   63  60  90 S7        30.13R
RICE LAKE      CLOUDY    65  60  85 SE9       30.05F
$$

...NORTHEAST IOWA...


CITY           SKY/WX    TMP DP  RH WIND       PRES   REMARKS
WATERLOO       CLOUDY    65  58  78 S12       30.10F
DUBUQUE        CLOUDY    64  59  83 S8        30.18R
DECORAH          N/A    N/A N/A N/A MISG        N/A
MASON CITY     CLOUDY    65  59  81 S13       30.07F
CHARLES CITY   CLOUDY    64  59  82 S12       30.11S
OELWEIN        CLOUDY    63  63 100 S8        30.15R
$$

...ELSEWHERE IN IOWA...


CITY           SKY/WX    TMP DP  RH WIND       PRES   REMARKS
DES MOINES     CLOUDY    67  59  75 SE8       30.06F
IOWA CITY      CLOUDY    63  58  83 SE8       30.16R
FORT DODGE     CLOUDY    66  59  77 S10       30.05S
MARSHALLTOWN   CLOUDY    65  58  78 SE8       30.10F
CEDAR RAPIDS   CLOUDY    65  56  72 S9        30.14S
$$

...NORTHERN ILLINOIS...


CITY           SKY/WX    TMP DP  RH WIND       PRES   REMARKS
CHICAGO-OHARE  MOSUNNY   64  53  67 S3        30.20R
DUPAGE         SUNNY     62  55  77 CALM      30.20R
CHICAGO-MIDWAY MOSUNNY   66  54  65 S6        30.20R
MOLINE         MOSUNNY   64  56  75 S3        30.17R
ROCKFORD       MOSUNNY   61  55  81 S3        30.20S
STERLING       PTSUNNY   64  57  77 CALM      30.20R
PEORIA         MOSUNNY   65  55  70 CALM      30.19R
$$

NOTE: "FAIR" INDICATES FEW OR NO CLOUDS BELOW 12,000 FEET WITH NO
SIGNIFICANT WEATHER AND/OR OBSTRUCTIONS TO VISIBILITY. WIND
SPEEDS ARE IN MILES-PER-HOUR.



USA.gov is the U.S. government's official web portal to all federal, state and local government web resources and services.